Weather History for Metropolis, IL

Change the Weather History Date:

Saturday, October 6, 2012

  Actual Average (KPAH) Record (KPAH)
Temperature  
Mean Temperature 46 °F 62 °F  
Max Temperature 57 °F 74 °F 95 °F (1938)
Min Temperature 37 °F 49 °F 33 °F (1980)
Degree Days  
Heating Degree Days 18 5  
Month to date heating degree days 27  
Since 1 July heating degree days 66  
Cooling Degree Days 0 2  
Month to date cooling degree days 13  
Year to date cooling degree days 1513  
Growing Degree Days 0 (Base 50)    
Moisture  
Dew Point 37 °F    
Average Humidity 71    
Maximum Humidity 100    
Minimum Humidity 37    
Precipitation  
Precipitation 0.01 in 0.14 in 4.03 in (1998)
Month to date precipitation 0.83  
Year to date precipitation 37.06  
Snow  
Snow 0.00 in 0.00 in - ()
Month to date snowfall 0.0  
Since 1 July snowfall 0.0  
Since 1 September snowfall 0.0  
Snow Depth -    
Sea Level Pressure  
Sea Level Pressure 30.20 in    
Wind  
Wind Speed 5 mph (NNW)    
Max Wind Speed 12 mph    
Max Gust Speed -    
Visibility 10 miles    
Events Thunderstorm    
T = Trace of Precipitation, MM = Missing Value Source: NWS Daily Summary

Daily Weather History Graph

Daily Weather History Graph

Search for Another Location

Airport:

Trip Planner

Search our weather history database for the weather conditions in past years. The results will help you decide how hot, cold, wet, or windy it might be!

Date:

Astronomy

Oct. 06, 2012 Rise Set
Actual Time 6:55 AM CDT 6:30 PM CDT
Civil Twilight 6:29 AM CDT 6:56 PM CDT
Nautical Twilight 5:58 AM CDT 7:26 PM CDT
Astronomical Twilight 5:28 AM CDT 7:56 PM CDT
Moon 10:51 PM CDT (10/6) 12:43 PM CDT (10/6)
Length of Visible Light 12h 26m
Length of Day
11h 34m
Waning Gibbous, 65% of the Moon is Illuminated
Oct 6
Waning Gibbous
Oct 8
Last Quarter
Oct 15
New
Oct 21
First Quarter
Oct 29
Full

Hourly Weather History & Observations

Time (CDT) Temp. Windchill Dew Point Humidity Pressure Visibility Wind Dir Wind Speed Gust Speed Precip Events Conditions
12:15 AM 44.4 °F 39.5 °F 43.7 °F 97% 30.17 in 10.0 mi NNW 9.2 mph - N/A   Overcast
12:35 AM 44.1 °F 40.8 °F 43.2 °F 97% 30.16 in 10.0 mi North 5.8 mph - N/A Thunderstorm Overcast
12:55 AM 43.7 °F 39.7 °F 42.8 °F 97% 30.17 in 10.0 mi North 6.9 mph - N/A   Overcast
1:15 AM 43.5 °F 40.1 °F 42.4 °F 96% 30.18 in 10.0 mi North 5.8 mph - N/A   Mostly Cloudy
1:55 AM 42.4 °F 40.7 °F 41.9 °F 98% 30.18 in 10.0 mi North 3.5 mph - N/A   Clear
2:35 AM 41.9 °F 40.0 °F 41.9 °F 100% 30.18 in 10.0 mi NNW 3.5 mph - N/A   Scattered Clouds
2:55 AM 41.5 °F 37.8 °F 41.5 °F 100% 30.18 in 10.0 mi NNW 5.8 mph - N/A   Scattered Clouds
3:15 AM 41.4 °F 37.6 °F 41.4 °F 100% 30.19 in 10.0 mi NNW 5.8 mph - N/A   Clear
3:35 AM 41.0 °F 38.0 °F 41.0 °F 100% 30.19 in 10.0 mi NNW 4.6 mph - 0.01 in   Clear
3:55 AM 40.8 °F - 40.5 °F 99% 30.19 in 10.0 mi Calm Calm - 0.01 in   Clear
4:15 AM 40.1 °F - 39.9 °F 99% 30.19 in 10.0 mi Calm Calm - N/A   Clear
4:35 AM 39.6 °F - 39.6 °F 100% 30.19 in 10.0 mi Calm Calm - N/A   Clear
4:55 AM 39.2 °F - 39.2 °F 100% 30.19 in 10.0 mi Calm Calm - N/A   Clear
5:15 AM 38.7 °F - 38.7 °F 100% 30.20 in 10.0 mi Calm Calm - N/A   Clear
5:35 AM 38.8 °F 35.4 °F 38.8 °F 100% 30.22 in 10.0 mi WNW 4.6 mph - N/A   Clear
5:55 AM 38.7 °F 36.3 °F 38.7 °F 100% 30.22 in 10.0 mi NW 3.5 mph - N/A   Clear
6:15 AM 38.7 °F - 38.7 °F 100% 30.22 in 10.0 mi Calm Calm - N/A   Clear
6:35 AM 38.3 °F - 38.3 °F 100% 30.22 in 10.0 mi Calm Calm - N/A   Clear
6:55 AM 38.3 °F - 38.3 °F 100% 30.22 in 10.0 mi Calm Calm - N/A   Clear
7:15 AM 37.9 °F - 37.9 °F 100% 30.22 in 10.0 mi Calm Calm - N/A   Clear
7:35 AM 38.5 °F - 38.5 °F 100% 30.23 in 10.0 mi Calm Calm - N/A   Clear
7:55 AM 39.4 °F - 38.8 °F 98% 30.23 in 10.0 mi Calm Calm - N/A   Clear
8:15 AM 40.8 °F 37.8 °F 39.4 °F 95% 30.24 in 10.0 mi North 4.6 mph - N/A   Clear
8:35 AM 41.9 °F 37.5 °F 39.2 °F 90% 30.24 in 10.0 mi North 6.9 mph - N/A   Clear
8:55 AM 43.2 °F 39.0 °F 39.4 °F 86% 30.24 in 10.0 mi North 6.9 mph - N/A   Clear
9:15 AM 44.4 °F 41.2 °F 39.0 °F 81% 30.24 in 10.0 mi North 5.8 mph - N/A   Clear
9:35 AM 45.9 °F 42.3 °F 38.5 °F 75% 30.25 in 10.0 mi NNW 6.9 mph - N/A   Clear
9:55 AM 46.8 °F - 37.9 °F 71% 30.24 in 10.0 mi North 6.9 mph - N/A   Clear
10:15 AM 47.5 °F - 37.0 °F 67% 30.24 in 10.0 mi North 3.5 mph - N/A   Clear
10:35 AM 48.4 °F - 37.6 °F 66% 30.24 in 10.0 mi North 4.6 mph - N/A   Clear
10:55 AM 50.5 °F - 38.3 °F 63% 30.24 in 10.0 mi North 6.9 mph - N/A   Clear
11:15 AM 51.3 °F - 36.3 °F 57% 30.23 in 10.0 mi North 6.9 mph - N/A   Clear
11:35 AM 52.7 °F - 35.4 °F 52% 30.21 in 10.0 mi East 4.6 mph - N/A   Clear
11:55 AM 53.4 °F - 32.0 °F 44% 30.21 in 10.0 mi NE 9.2 mph - N/A   Clear
12:15 PM 53.6 °F - 32.9 °F 45% 30.21 in 10.0 mi North 8.1 mph - N/A   Clear
12:35 PM 53.6 °F - 33.4 °F 46% 30.20 in 10.0 mi North 5.8 mph - N/A   Clear
12:55 PM 54.9 °F - 33.6 °F 45% 30.20 in 10.0 mi North 8.1 mph - N/A   Clear
1:15 PM 55.4 °F - 32.4 °F 42% 30.19 in 10.0 mi North 8.1 mph - N/A   Clear
1:35 PM 55.2 °F - 30.7 °F 39% 30.19 in 10.0 mi North 8.1 mph - N/A   Clear
1:55 PM 56.1 °F - 30.2 °F 37% 30.18 in 10.0 mi NNE 6.9 mph - N/A   Clear
2:15 PM 55.9 °F - 32.2 °F 41% 30.18 in 10.0 mi NW 11.5 mph - N/A   Clear
2:35 PM 55.4 °F - 32.9 °F 43% 30.18 in 10.0 mi North 8.1 mph - N/A   Scattered Clouds
2:55 PM 55.0 °F - 31.3 °F 40% 30.18 in 10.0 mi NNW 6.9 mph - N/A   Mostly Cloudy
3:15 PM 54.1 °F - 30.2 °F 40% 30.18 in 10.0 mi NNW 6.9 mph - N/A   Overcast
3:35 PM 53.8 °F - 31.3 °F 42% 30.17 in 10.0 mi NNW 6.9 mph - N/A   Overcast
3:55 PM 53.8 °F - 32.5 °F 45% 30.17 in 10.0 mi NNW 6.9 mph - N/A   Overcast
4:15 PM 53.4 °F - 34.2 °F 48% 30.17 in 10.0 mi NNW 8.1 mph - N/A   Overcast
4:35 PM 52.9 °F - 32.4 °F 46% 30.16 in 10.0 mi NNW 9.2 mph - N/A   Overcast
4:55 PM 52.7 °F - 32.7 °F 47% 30.15 in 10.0 mi North 5.8 mph - N/A   Overcast
5:15 PM 52.3 °F - 34.5 °F 51% 30.15 in 10.0 mi NNW 6.9 mph - N/A   Overcast
5:35 PM 51.8 °F - 34.0 °F 51% 30.16 in 10.0 mi NNW 9.2 mph - N/A   Overcast
5:55 PM 51.3 °F - 35.2 °F 54% 30.18 in 10.0 mi NW 5.8 mph - N/A   Overcast
6:15 PM 50.9 °F - 35.4 °F 55% 30.18 in 10.0 mi NNW 9.2 mph - N/A   Overcast
6:35 PM 50.4 °F - 35.1 °F 56% 30.18 in 10.0 mi NNW 6.9 mph - N/A   Overcast
6:55 PM 50.0 °F - 35.1 °F 57% 30.18 in 10.0 mi North 4.6 mph - N/A   Overcast
7:15 PM 49.5 °F - 36.5 °F 61% 30.19 in 10.0 mi NW 3.5 mph - N/A   Overcast
7:35 PM 49.3 °F - 36.0 °F 60% 30.19 in 10.0 mi Calm Calm - N/A   Overcast
7:55 PM 48.9 °F - 37.4 °F 64% 30.20 in 10.0 mi Calm Calm - N/A   Mostly Cloudy
8:15 PM 48.7 °F - 37.0 °F 64% 30.20 in 10.0 mi NNW 3.5 mph - N/A   Overcast
8:35 PM 48.6 °F - 36.7 °F 64% 30.21 in 10.0 mi NW 3.5 mph - N/A   Overcast
8:55 PM 48.4 °F - 37.0 °F 65% 30.22 in 10.0 mi NW 4.6 mph - N/A   Overcast
9:15 PM 48.2 °F - 36.9 °F 65% 30.22 in 10.0 mi NW 4.6 mph - N/A   Overcast
9:35 PM 48.2 °F - 36.3 °F 63% 30.21 in 10.0 mi NNW 6.9 mph - N/A   Overcast
9:55 PM 47.8 °F - 36.5 °F 65% 30.21 in 10.0 mi North 5.8 mph - N/A   Overcast
10:15 PM 47.3 °F - 36.5 °F 66% 30.20 in 10.0 mi North 4.6 mph - N/A   Overcast
10:35 PM 47.5 °F - 35.6 °F 63% 30.20 in 10.0 mi NNW 11.5 mph - N/A   Overcast
11:15 PM 46.9 °F - 35.4 °F 64% 30.20 in 10.0 mi North 6.9 mph - N/A   Overcast
11:35 PM 46.9 °F - 35.6 °F 65% 30.20 in 10.0 mi NNW 5.8 mph - N/A   Overcast
11:55 PM 46.6 °F - 35.8 °F 66% 30.19 in 10.0 mi NNW 5.8 mph - N/A   Overcast